W5ITZ Weather Reports


time (UTC)temp
C
wind
direction
speed
KPH
gust
KPH
rain 1hr
cm
rain 24hr
cm
rain mn
cm
humidity
%
barometer
mb
20260506205027 28 238 9.7 11.3 0.00 0.00 0.00 80 1008.4
20260506204526 29 182 8.0 11.3 0.00 0.00 0.00 78 1008.3
20260506204022 30 188 11.3 12.9 0.00 0.00 0.00 77 1008.3
20260506203521 30 231 8.0 8.0 0.00 0.00 0.00 77 1008.2
20260506203017 30 239 8.0 9.7 0.00 0.00 0.00 76 1008.4
20260506202514 30 219 6.4 9.7 0.00 0.00 0.00 76 1008.2
20260506202010 30 226 4.8 8.0 0.00 0.00 0.00 77 1008.3
20260506201509 30 240 9.7 11.3 0.00 0.00 0.00 77 1008.5
20260506201004 29 197 9.7 11.3 0.00 0.00 0.00 78 1008.5
20260506200501 29 245 3.2 3.2 0.00 0.00 0.00 80 1008.4
20260506195957 28 228 8.0 11.3 0.00 0.00 0.00 80 1008.7
20260506195455 28 220 9.7 11.3 0.00 0.00 0.00 80 1008.8
20260506194950 28 198 11.3 12.9 0.00 0.00 0.00 82 1008.9
20260506194448 28 170 14.5 16.1 0.00 0.00 0.00 80 1009.0
20260506193945 28 178 16.1 16.1 0.00 0.00 0.00 79 1009.0
20260506193442 28 174 12.9 12.9 0.00 0.00 0.00 81 1009.1
20260506192938 28 138 12.9 14.5 0.00 0.00 0.00 82 1009.1
20260506192436 28 171 14.5 16.1 0.00 0.00 0.00 82 1009.1
20260506191932 28 165 12.9 16.1 0.00 0.00 0.00 83 1009.5
20260506191429 28 181 22.5 22.5 0.00 0.00 0.00 82 1009.5
20260506190925 27 163 16.1 16.1 0.00 0.00 0.00 83 1009.4
20260506190422 27 206 12.9 12.9 0.00 0.00 0.00 82 1009.5
20260506185919 28 168 17.7 17.7 0.00 0.00 0.00 82 1009.6
20260506185417 28 203 14.5 17.7 0.00 0.00 0.00 82 1009.6
20260506184913 28 171 12.9 16.1 0.00 0.00 0.00 82 1009.6
20260506184410 27 209 14.5 16.1 0.00 0.00 0.00 83 1009.6
20260506183908 27 200 9.7 11.3 0.00 0.00 0.00 86 1009.7
20260506183403 27 177 14.5 16.1 0.00 0.00 0.00 86 1009.9
20260506182900 27 179 16.1 17.7 0.00 0.00 0.00 86 1010.0
20260506182357 27 177 16.1 17.7 0.00 0.00 0.00 85 1010.1
20260506181854 27 163 8.0 9.7 0.00 0.00 0.00 87 1010.1
20260506181352 27 179 12.9 14.5 0.00 0.00 0.00 87 1010.2
20260506180849 27 169 11.3 12.9 0.00 0.00 0.00 87 1010.0
20260506180345 27 198 14.5 16.1 0.00 0.00 0.00 86 1010.4
20260506175842 27 173 11.3 12.9 0.00 0.00 0.00 86 1010.1
20260506175338 26 182 12.9 14.5 0.00 0.00 0.00 86 1010.3
20260506174836 26 177 12.9 17.7 0.00 0.00 0.00 87 1010.4
20260506174333 26 174 6.4 8.0 0.00 0.00 0.00 87 1010.4
20260506173831 26 171 9.7 9.7 0.00 0.00 0.00 87 1010.3
20260506173327 26 197 11.3 12.9 0.00 0.00 0.00 87 1010.3
20260506172825 26 175 8.0 9.7 0.00 0.00 0.00 87 1010.4
20260506172321 26 148 11.3 11.3 0.00 0.00 0.00 86 1010.5
20260506171818 26 172 12.9 12.9 0.00 0.00 0.00 86 1010.3
20260506171315 27 157 14.5 16.1 0.00 0.00 0.00 86 1010.4
20260506170813 27 173 12.9 14.5 0.00 0.00 0.00 85 1010.4
20260506170309 27 172 12.9 12.9 0.00 0.00 0.00 85 1010.2
20260506165808 27 183 12.9 16.1 0.00 0.00 0.00 84 1010.3
20260506165306 27 189 12.9 14.5 0.00 0.00 0.00 85 1010.3
20260506164802 27 158 11.3 12.9 0.00 0.00 0.00 85 1010.2
20260506164258 27 169 12.9 16.1 0.00 0.00 0.00 86 1010.2
20260506163755 27 165 14.5 16.1 0.00 0.00 0.00 86 1010.2
20260506163250 27 171 14.5 14.5 0.00 0.00 0.00 86 1010.2
20260506162746 27 163 12.9 16.1 0.00 0.00 0.00 86 1010.2
20260506162244 26 169 16.1 16.1 0.00 0.00 0.00 86 1010.1
20260506161742 26 176 19.3 24.1 0.00 0.00 0.00 87 1010.1
20260506161239 26 167 16.1 17.7 0.00 0.00 0.00 87 1010.1
20260506160736 26 165 12.9 14.5 0.00 0.00 0.00 87 1009.8
20260506160233 26 164 20.9 24.1 0.00 0.00 0.00 86 1009.8
20260506155731 26 156 17.7 17.7 0.00 0.00 0.00 88 1009.7
20260506155228 26 183 17.7 20.9 0.00 0.00 0.00 91 1009.8
20260506153335 25 156 4.8 4.8 0.00 0.00 0.00 92 1009.6
20260506152832 25 173 8.0 8.0 0.00 0.00 0.00 91 1009.7
20260506152329 26 140 9.7 11.3 0.00 0.00 0.00 91 1009.6
20260506151828 26 137 8.0 9.7 0.00 0.00 0.00 91 1009.5
20260506151324 26 133 11.3 12.9 0.00 0.00 0.00 92 1009.4
20260506150821 25 144 8.0 9.7 0.00 0.00 0.00 92 1009.0
20260506150318 25 148 11.3 11.3 0.00 0.00 0.00 92 1009.4
20260506145815 25 138 14.5 14.5 0.00 0.00 0.00 93 1009.1
20260506145311 25 135 12.9 14.5 0.00 0.00 0.00 93 1009.3
20260506144809 25 143 9.7 11.3 0.00 0.00 0.00 94 1009.3
20260506144305 25 116 9.7 11.3 0.00 0.00 0.00 94 1009.0
20260506143804 25 116 6.4 8.0 0.00 0.00 0.00 94 1009.3
20260506143300 25 131 9.7 11.3 0.00 0.00 0.00 94 1008.9
20260506142759 25 123 8.0 9.7 0.00 0.00 0.00 94 1008.9
20260506142256 25 126 11.3 12.9 0.00 0.00 0.00 94 1009.1
20260506141754 25 142 9.7 9.7 0.00 0.00 0.00 94 1009.0
20260506141253 25 119 6.4 8.0 0.00 0.00 0.00 94 1008.9
20260506140750 25 103 4.8 4.8 0.00 0.00 0.00 95 1009.0
20260506140246 25 130 8.0 9.7 0.00 0.00 0.00 95 1008.8
20260506135744 25 122 8.0 9.7 0.00 0.00 0.00 95 1008.9
20260506135240 25 96 8.0 8.0 0.00 0.00 0.00 95 1009.2
20260506134737 25 115 3.2 3.2 0.00 0.00 0.00 95 1009.1
20260506134233 25 114 11.3 12.9 0.00 0.00 0.00 95 1009.0
20260506133730 25 107 6.4 8.0 0.00 0.00 0.00 95 1008.9
20260506133227 25 115 8.0 9.7 0.00 0.00 0.00 95 1009.3
20260506132724 25 122 4.8 4.8 0.00 0.00 0.00 95 1009.1
20260506132221 25 122 6.4 8.0 0.00 0.00 0.00 95 1009.3
20260506131719 24 133 4.8 4.8 0.00 0.00 0.00 95 1009.0
20260506131214 24 148 6.4 4.8 0.00 0.00 0.00 95 1009.0
20260506130712 24 147 3.2 3.2 0.00 0.00 0.00 95 1009.1
20260506130209 24 109 3.2 3.2 0.00 0.00 0.00 95 1009.1
20260506125707 24 118 4.8 4.8 0.00 0.00 0.00 95 1009.0
20260506125204 24 116 4.8 4.8 0.00 0.00 0.00 95 1008.9
20260506124702 24 97 3.2 3.2 0.00 0.00 0.00 95 1009.0
20260506124200 24 133 3.2 3.2 0.00 0.00 0.00 95 1009.0
20260506123657 24 82 1.6 1.6 0.00 0.00 0.00 95 1009.0
20260506123155 24 84 1.6 1.6 0.00 0.00 0.00 95 1009.1
20260506122652 24 129 3.2 3.2 0.00 0.00 0.00 95 1008.9
20260506122150 24 129 4.8 4.8 0.00 0.00 0.00 95 1008.6
20260506121647 24 119 4.8 4.8 0.00 0.00 0.00 95 1008.9
20260506121143 24 118 4.8 8.0 0.00 0.00 0.00 95 1008.8
20260506120642 24 118 3.2 3.2 0.00 0.00 0.00 95 1008.5
20260506120138 24 110 3.2 3.2 0.00 0.00 0.00 95 1008.5
20260506115637 24 75 1.6 1.6 0.00 0.00 0.00 95 1008.6
20260506115135 24 134 3.2 1.6 0.00 0.00 0.00 95 1008.9
20260506114632 24 122 4.8 4.8 0.00 0.00 0.00 95 1008.7
20260506114130 24 148 6.4 8.0 0.00 0.00 0.00 95 1008.8
20260506113628 24 131 4.8 3.2 0.00 0.00 0.00 95 1008.6
20260506113125 24 136 4.8 8.0 0.00 0.00 0.00 95 1008.7
20260506112621 24 165 4.8 4.8 0.00 0.00 0.00 95 1008.7
20260506112119 24 156 4.8 4.8 0.00 0.00 0.00 95 1008.4
20260506111616 24 160 4.8 4.8 0.00 0.00 0.00 95 1008.7
20260506111114 24 155 4.8 4.8 0.00 0.00 0.00 95 1008.6
20260506110611 24 141 4.8 4.8 0.00 0.00 0.00 95 1008.4
20260506110108 24 138 8.0 8.0 0.00 0.00 0.00 95 1008.3
20260506105604 24 123 4.8 3.2 0.00 0.00 0.00 95 1008.7
20260506105101 24 129 6.4 8.0 0.00 0.00 0.00 95 1008.3
20260506104600 24 133 4.8 4.8 0.00 0.00 0.00 95 1008.4
20260506104057 24 130 4.8 4.8 0.00 0.00 0.00 95 1008.4
20260506103554 24 127 4.8 4.8 0.00 0.00 0.00 95 1008.3
20260506103051 24 136 3.2 3.2 0.00 0.00 0.00 95 1008.4
20260506102549 24 127 4.8 4.8 0.00 0.00 0.00 95 1008.3
20260506102046 24 119 4.8 3.2 0.00 0.00 0.00 95 1008.3
20260506101543 24 124 4.8 3.2 0.00 0.00 0.00 95 1008.3
20260506101040 24 138 4.8 4.8 0.00 0.00 0.00 95 1008.2
20260506100538 24 148 6.4 8.0 0.00 0.00 0.00 95 1008.1
20260506100036 24 163 4.8 4.8 0.00 0.00 0.00 95 1008.3
20260506095535 24 134 4.8 4.8 0.00 0.00 0.00 95 1008.1
20260506095030 24 140 6.4 8.0 0.00 0.00 0.00 94 1008.3
20260506094528 24 152 4.8 4.8 0.00 0.00 0.00 94 1008.2
20260506094026 24 148 8.0 8.0 0.00 0.00 0.00 94 1008.2
20260506093524 24 135 8.0 8.0 0.00 0.00 0.00 94 1008.2
20260506093021 24 149 6.4 9.7 0.00 0.00 0.00 94 1008.1
20260506092519 24 163 6.4 8.0 0.00 0.00 0.00 94 1008.0
20260506092015 24 158 4.8 4.8 0.00 0.00 0.00 94 1008.1
20260506091514 24 155 4.8 4.8 0.00 0.00 0.00 94 1008.1
20260506091011 24 144 8.0 9.7 0.00 0.00 0.00 94 1007.8
20260506090509 24 138 8.0 9.7 0.00 0.00 0.00 94 1008.0
20260506090005 24 167 9.7 11.3 0.00 0.00 0.00 94 1007.9
20260506085501 24 142 8.0 9.7 0.00 0.00 0.00 94 1008.0
20260506084958 24 150 8.0 9.7 0.00 0.00 0.00 94 1008.1
20260506084455 24 152 8.0 9.7 0.00 0.00 0.00 93 1008.2
20260506083951 24 196 11.3 11.3 0.00 0.00 0.00 93 1008.2
20260506083448 24 157 9.7 9.7 0.00 0.00 0.00 94 1008.2
20260506082945 24 148 11.3 11.3 0.00 0.00 0.00 93 1008.2
20260506082442 24 165 8.0 9.7 0.00 0.00 0.00 93 1008.0
20260506081938 24 150 8.0 8.0 0.00 0.00 0.00 93 1008.0
20260506081437 24 147 9.7 9.7 0.00 0.00 0.00 94 1008.1
20260506080934 24 147 11.3 11.3 0.00 0.00 0.00 94 1008.2
20260506080431 24 176 8.0 8.0 0.00 0.00 0.00 94 1008.2
20260506073415 25 175 11.3 11.3 0.00 0.00 0.00 93 1008.5
20260506072912 25 150 11.3 11.3 0.00 0.00 0.00 93 1008.7
20260506072409 25 148 9.7 11.3 0.00 0.00 0.00 93 1008.9
20260506071907 25 176 8.0 9.7 0.00 0.00 0.00 93 1008.8
20260506071405 25 166 8.0 9.7 0.00 0.00 0.00 93 1009.0
20260506070901 25 174 12.9 14.5 0.00 0.00 0.00 93 1008.7
20260506070358 25 176 9.7 11.3 0.00 0.00 0.00 93 1009.0
20260506062335 25 195 9.7 11.3 0.00 0.00 0.00 92 1009.5
20260506061831 25 193 8.0 9.7 0.00 0.00 0.00 92 1009.3
20260506061328 25 187 9.7 9.7 0.00 0.00 0.00 92 1009.3
20260506060826 25 188 6.4 9.7 0.00 0.00 0.00 92 1009.4
20260506060324 25 215 9.7 9.7 0.00 0.00 0.00 92 1009.4
20260506051255 25 198 16.1 17.7 0.00 0.00 0.00 92 1008.7
20260506050754 25 176 12.9 16.1 0.00 0.00 0.00 91 1009.1
20260506050251 25 142 12.9 16.1 0.00 0.00 0.00 91 1008.9
20260506044741 25 179 9.7 11.3 0.00 0.00 0.00 91 1009.0
20260506044238 25 189 17.7 20.9 0.00 0.00 0.00 91 1008.7
20260506043736 25 188 12.9 14.5 0.00 0.00 0.00 91 1008.7
20260506043233 25 206 17.7 22.5 0.00 0.00 0.00 91 1008.6
20260506042732 25 166 11.3 14.5 0.00 0.00 0.00 91 1008.7
20260506042230 25 173 17.7 17.7 0.00 0.00 0.00 91 1008.7
20260506041728 25 182 14.5 14.5 0.00 0.00 0.00 91 1008.8
20260506041225 25 162 14.5 16.1 0.00 0.00 0.00 91 1008.8
20260506040722 25 150 14.5 16.1 0.00 0.00 0.00 90 1008.6
20260506040219 25 169 17.7 17.7 0.00 0.00 0.00 90 1008.6
20260506035716 25 176 19.3 25.7 0.00 0.00 0.00 91 1008.5
20260506035213 25 185 11.3 12.9 0.00 0.00 0.00 90 1008.6
20260506034709 25 184 19.3 20.9 0.00 0.00 0.00 90 1008.3
20260506034207 25 161 17.7 17.7 0.00 0.00 0.00 90 1008.5
20260506033704 25 157 12.9 14.5 0.00 0.00 0.00 90 1008.4
20260506033201 25 195 16.1 17.7 0.00 0.00 0.00 90 1008.6
20260506032658 25 183 19.3 22.5 0.00 0.00 0.00 91 1008.4
20260506032155 25 165 12.9 17.7 0.00 0.00 0.00 91 1008.7
20260506031651 25 181 11.3 12.9 0.00 0.00 0.00 91 1008.7
20260506031149 25 167 11.3 12.9 0.00 0.00 0.00 91 1008.7
20260506030647 25 162 14.5 14.5 0.00 0.00 0.00 91 1008.5
20260506030144 25 164 12.9 12.9 0.00 0.00 0.00 91 1008.5
20260506025641 25 168 14.5 17.7 0.00 0.00 0.00 91 1008.4
20260506025137 25 183 16.1 16.1 0.00 0.00 0.00 91 1008.2
20260506024635 25 188 14.5 16.1 0.00 0.00 0.00 91 1008.3
20260506024130 25 188 14.5 16.1 0.00 0.00 0.00 91 1008.1
20260506023627 25 176 14.5 16.1 0.00 0.00 0.00 91 1008.1
20260506023124 25 176 11.3 12.9 0.00 0.00 0.00 91 1008.1
20260506022622 25 166 17.7 17.7 0.00 0.00 0.00 91 1008.0
20260506022119 25 178 9.7 11.3 0.00 0.00 0.00 91 1007.9
20260506021616 25 185 9.7 11.3 0.00 0.00 0.00 91 1007.8
20260506021114 25 181 9.7 12.9 0.00 0.00 0.00 91 1007.6
20260506020610 25 169 12.9 14.5 0.00 0.00 0.00 91 1007.6
20260506020108 25 189 11.3 12.9 0.00 0.00 0.00 91 1007.5
20260506015606 25 155 16.1 16.1 0.00 0.00 0.00 91 1007.5
20260506015102 25 182 14.5 16.1 0.00 0.00 0.00 90 1007.8
20260506014600 25 158 16.1 17.7 0.00 0.00 0.00 90 1007.5
20260506014055 25 191 22.5 24.1 0.00 0.00 0.00 90 1007.3
20260506013554 25 171 17.7 17.7 0.00 0.00 0.00 90 1007.4
20260506013050 25 191 11.3 14.5 0.00 0.00 0.00 90 1007.2
20260506012546 25 187 14.5 17.7 0.00 0.00 0.00 89 1007.0
20260506012043 25 177 14.5 17.7 0.00 0.00 0.00 89 1007.0
20260506011541 25 192 12.9 14.5 0.00 0.00 0.00 89 1007.1
20260506011036 25 200 14.5 14.5 0.00 0.00 0.00 88 1006.9
20260506010531 25 188 17.7 17.7 0.00 0.00 0.00 88 1006.8
20260506010027 25 148 19.3 20.9 0.00 0.00 0.00 88 1006.8
20260506005524 25 177 12.9 16.1 0.00 0.00 0.00 87 1006.7
20260506005020 25 186 19.3 25.7 0.00 0.00 0.00 87 1006.7
20260506004518 25 176 20.9 25.7 0.00 0.00 0.00 86 1006.7
20260506004014 25 195 20.9 29.0 0.00 0.00 0.00 87 1006.7
20260506003510 25 200 17.7 20.9 0.00 0.00 0.00 87 1006.6
20260506003006 25 182 20.9 25.7 0.00 0.00 0.00 87 1006.7
20260506002502 25 176 19.3 24.1 0.00 0.00 0.00 87 1006.8
20260506001958 25 179 17.7 20.9 0.00 0.00 0.00 86 1006.7
20260506001455 25 182 17.7 20.9 0.00 0.00 0.00 86 1006.7
20260506000952 25 185 22.5 24.1 0.00 0.00 0.00 86 1006.8
20260506000449 26 175 22.5 24.1 0.00 0.00 0.00 86 1006.5
20260505235946 26 148 16.1 17.7 0.00 0.00 0.00 85 1006.5
20260505235445 26 170 17.7 20.9 0.00 0.00 0.00 85 1006.7
20260505234941 26 166 24.1 25.7 0.00 0.00 0.00 85 1006.5
20260505234439 26 179 20.9 22.5 0.00 0.00 0.00 85 1006.4
20260505233935 26 163 17.7 20.9 0.00 0.00 0.00 85 1006.5
20260505233433 26 180 24.1 29.0 0.00 0.00 0.00 85 1006.5
20260505232930 26 170 14.5 16.1 0.00 0.00 0.00 85 1006.6
20260505232428 26 194 19.3 22.5 0.00 0.00 0.00 84 1006.5
20260505231924 26 171 20.9 24.1 0.00 0.00 0.00 84 1006.8
20260505231422 26 161 24.1 27.4 0.00 0.00 0.00 83 1006.7
20260505230920 26 179 25.7 33.8 0.00 0.00 0.00 84 1006.7
20260505230418 26 187 19.3 24.1 0.00 0.00 0.00 83 1006.6
20260505225914 26 197 24.1 27.4 0.00 0.00 0.00 83 1006.6
20260505225411 26 158 20.9 22.5 0.00 0.00 0.00 83 1006.7
20260505224906 26 183 24.1 27.4 0.00 0.00 0.00 82 1006.8
20260505224404 26 183 20.9 24.1 0.00 0.00 0.00 82 1006.8
20260505223901 26 202 16.1 17.7 0.00 0.00 0.00 82 1006.9
20260505223358 26 205 19.3 22.5 0.00 0.00 0.00 83 1007.0
20260505222854 26 202 17.7 22.5 0.00 0.00 0.00 82 1006.9
20260505222350 26 192 12.9 12.9 0.00 0.00 0.00 83 1007.1
20260505221847 26 182 20.9 24.1 0.00 0.00 0.00 82 1007.0
20260505221344 26 177 19.3 24.1 0.00 0.00 0.00 82 1007.1
20260505220841 26 184 22.5 25.7 0.00 0.00 0.00 83 1007.1
20260505220338 26 169 24.1 27.4 0.00 0.00 0.00 82 1007.1
20260505215836 26 186 22.5 24.1 0.00 0.00 0.00 82 1007.5
20260505215333 26 179 14.5 16.1 0.00 0.00 0.00 83 1007.4
20260505214831 26 179 20.9 24.1 0.00 0.00 0.00 82 1007.3
20260505214328 26 174 20.9 25.7 0.00 0.00 0.00 82 1007.3
20260505213825 26 132 20.9 25.7 0.00 0.00 0.00 81 1007.5
20260505213324 26 172 17.7 22.5 0.00 0.00 0.00 81 1007.4
20260505212819 26 161 17.7 20.9 0.00 0.00 0.00 81 1007.5
20260505212317 26 177 20.9 24.1 0.00 0.00 0.00 81 1007.4
20260505211812 26 159 17.7 22.5 0.00 0.00 0.00 81 1007.7
20260505211310 26 178 22.5 25.7 0.00 0.00 0.00 81 1007.6
20260505210806 27 170 22.5 27.4 0.00 0.00 0.00 80 1007.6
20260505210303 27 161 20.9 24.1 0.00 0.00 0.00 81 1007.7
20260505205800 27 160 16.1 16.1 0.00 0.00 0.00 81 1007.7
20260505205259 27 160 12.9 14.5 0.00 0.00 0.00 81 1007.7